Theta_e
310 311 311 310 309 309 310 310 310 310 310 311 311 311 311 312 311 305 307 313 316 323 323 314 309 308 313 312 308 303 295 292 295 297 299 303 304 307 307 308 314 319 319 322 319
311 311 311 311 310 308 309 309 309 309 310 310 310 311 311 311 302 303 313 316 318 319 312 306 304 305 303 310 305 298 294 296 301 301 298 299 301 302 305 306 312 315 322 319 320
311 311 311 311 310 310 309 309 308 309 309 309 309 310 310 307 297 303 315 316 317 314 314 312 308 306 303 307 304 296 295 301 300 299 299 299 299 301 302 302 310 314 318 315 318
310 310 309 311 310 310 310 310 309 309 308 308 309 309 309 300 281 300 311 312 314 308 312 308 303 300 301 303 308 295 300 302 302 305 300 299 301 300 303 303 307 311 323 315 314
309 310 309 309 310 310 310 310 310 309 308 308 308 309 300 288 286 301 307 306 303 302 301 302 298 298 297 302 307 303 301 302 304 305 301 303 298 298 300 304 312 319 323 318 315
309 309 309 309 309 310 310 310 310 310 309 307 307 307 294 279 296 299 299 300 300 298 298 301 300 300 296 296 301 305 306 304 305 305 305 301 299 299 300 305 319 322 321 321 318
309 308 309 308 309 309 310 310 310 310 308 307 307 302 292 287 298 298 299 297 299 298 296 301 301 298 297 293 297 302 299 303 303 304 302 302 298 297 300 303 315 319 319 319 321
308 308 308 308 308 309 309 309 309 307 307 308 307 297 286 297 298 300 299 298 299 300 299 301 302 300 297 296 297 297 295 291 298 303 304 301 296 300 301 300 304 315 317 319 321
308 308 308 307 308 308 308 308 306 307 308 307 297 292 285 300 294 297 296 295 297 299 299 302 301 297 294 288 292 293 286 289 293 303 302 301 297 304 302 300 298 298 308 317 319
307 307 307 307 308 308 306 305 305 301 300 302 299 287 289 288 294 295 295 295 292 294 294 295 296 294 291 286 281 287 288 288 291 298 300 297 298 302 305 300 299 299 299 309 317
307 307 307 307 308 307 299 291 286 284 288 285 286 287 289 293 295 292 294 292 290 289 282 289 287 285 290 289 288 286 287 289 292 298 299 298 298 301 302 298 298 299 300 298 312
307 307 307 307 307 304 294 288 288 289 283 288 289 289 292 292 286 290 294 285 284 281 285 283 280 288 292 292 290 288 284 283 292 296 297 293 296 301 304 301 301 302 300 300 299
307 307 307 307 305 295 291 290 296 294 283 284 288 288 289 291 287 287 290 287 281 279 280 279 282 289 289 288 287 287 285 283 286 290 293 292 291 295 300 303 304 304 304 302 302
308 307 306 305 294 290 289 295 296 290 265 276 284 288 290 291 284 293 292 288 283 278 279 280 285 285 285 285 288 284 289 288 287 284 284 292 283 291 298 298 302 305 306 303 303
308 307 305 300 289 289 293 296 295 285 257 278 284 293 290 285 285 286 293 287 281 281 281 277 283 282 282 284 289 286 289 288 287 285 284 285 284 286 296 296 299 302 304 304 304
308 306 302 295 293 293 295 295 286 267 258 270 281 281 281 282 284 288 286 290 288 283 282 280 287 286 286 287 288 292 289 286 286 285 278 283 285 282 288 295 299 302 304 303 295
307 304 298 296 289 295 293 284 267 260 272 269 271 279 279 279 281 282 282 278 277 274 267 278 279 284 288 283 288 287 285 277 276 276 275 284 282 287 290 291 296 301 304 301 294
304 301 298 296 295 293 285 272 259 262 263 279 279 279 273 278 279 280 279 274 279 277 273 269 268 279 286 283 282 285 284 278 270 273 276 283 280 285 293 291 291 292 293 299 292
302 292 291 293 296 288 277 261 265 265 277 278 278 269 263 273 276 276 273 273 280 282 274 268 271 284 285 286 285 283 280 286 280 273 275 279 284 287 287 289 291 292 293 293 295
290 289 289 294 292 283 271 270 266 279 280 280 272 273 260 262 269 268 269 279 281 285 285 279 271 281 284 287 288 284 289 279 281 265 266 276 279 281 283 286 289 291 292 293 295
288 279 289 294 291 275 265 265 268 280 281 279 275 271 270 267 267 262 268 278 284 284 285 282 278 276 281 282 279 281 280 283 284 277 272 271 276 283 284 287 289 290 292 293 293
279 271 290 290 274 272 264 268 281 280 281 280 280 279 276 274 266 269 267 276 285 284 278 283 279 273 275 284 286 286 282 283 279 276 276 277 275 285 285 287 290 290 290 290 291
274 273 290 286 265 270 269 274 279 279 280 276 276 280 279 276 269 273 276 282 284 282 280 281 277 264 270 278 282 282 284 285 284 283 277 274 274 285 288 288 289 289 289 288 288
276 270 274 275 268 270 269 265 270 281 279 281 278 278 277 276 278 268 276 280 282 283 285 284 280 269 265 270 279 276 280 282 281 278 279 277 277 280 283 285 286 287 286 286 285
280 270 269 265 271 263 273 274 274 273 277 280 278 278 273 267 274 274 277 278 280 284 281 281 271 272 275 279 280 279 276 279 278 280 279 281 279 283 284 286 286 286 285 285 284
276 273 278 268 275 269 273 269 275 275 276 272 275 279 277 270 273 274 277 277 276 279 278 281 272 277 275 279 279 277 279 279 279 278 281 281 280 284 284 285 285 285 285 284 284
281 281 278 274 269 271 266 271 276 278 278 280 279 278 277 278 280 279 279 280 280 278 277 276 276 273 262 277 276 271 276 277 278 282 283 280 282 285 284 286 285 284 284 284 284
Wind_Speed
12 13 13 13 12 13 14 15 15 16 18 19 20 19 20 22 20 5 5 5 8 15 10 6 6 5 1 2 2 4 3 4 5 6 4 4 5 6 3 5 2 3 5 3 19
11 12 13 13 13 13 13 14 15 15 16 17 20 22 20 21 4 3 10 13 14 16 5 2 3 5 1 2 2 4 5 9 5 5 4 2 4 7 3 2 1 1 4 14 18
13 13 14 13 13 14 14 14 14 15 16 17 18 22 23 12 1 1 15 17 14 13 3 3 4 2 3 2 4 4 7 5 4 3 2 1 3 5 1 2 4 5 10 14 16
14 14 16 14 11 13 15 14 14 15 15 16 17 19 22 3 1 4 16 19 14 9 4 4 2 3 5 6 3 3 6 4 6 4 3 2 2 6 3 2 4 6 11 14 15
12 14 16 16 14 15 16 16 16 16 15 15 16 17 7 6 5 6 17 14 8 9 5 4 1 1 5 5 2 4 4 5 6 4 2 1 2 2 6 5 7 9 11 14 16
11 14 15 16 16 16 15 17 17 18 16 16 13 11 3 4 4 8 8 9 7 6 6 6 4 4 5 2 5 3 6 4 5 5 2 4 4 2 2 2 4 7 12 10 13
12 12 14 16 18 17 16 18 19 21 19 15 10 2 1 10 5 9 7 3 5 5 5 6 6 5 7 3 4 2 4 4 7 6 4 4 6 7 6 1 5 6 6 4 7
12 13 15 15 17 17 17 19 20 21 18 10 3 3 7 5 5 7 6 5 5 4 2 6 5 4 2 6 2 4 1 6 7 11 7 8 15 9 7 5 6 7 7 7 9
8 9 13 16 17 16 19 22 21 16 8 4 4 3 9 8 1 3 4 5 7 4 4 5 3 3 1 2 4 6 7 11 3 11 6 15 5 13 8 7 8 4 8 9 7
9 11 12 14 14 15 20 22 8 5 5 3 2 3 4 4 4 5 4 2 3 7 6 1 3 5 5 6 12 5 8 5 14 6 6 10 11 5 10 11 10 9 5 8 9
9 10 11 13 14 13 9 6 8 6 6 2 3 4 6 8 5 4 3 5 2 3 1 3 6 14 12 10 9 2 5 13 3 6 7 16 11 17 8 7 9 8 8 7 10
8 9 10 10 10 10 4 5 2 4 9 3 5 5 7 2 5 5 1 0 1 4 2 4 13 10 7 9 13 13 5 7 6 4 5 3 14 14 14 12 10 12 9 9 5
6 7 9 7 6 5 4 2 2 2 4 7 4 3 3 5 4 5 5 1 3 2 4 8 6 8 12 14 12 15 18 4 3 4 3 2 7 10 10 11 7 8 7 6 10
8 5 6 2 4 1 2 5 0 4 7 7 3 3 3 2 5 5 5 6 2 7 6 8 10 15 12 12 14 13 8 10 10 2 4 5 11 12 16 13 18 17 13 9 10
7 3 3 3 3 2 3 4 3 5 5 5 4 3 4 3 4 1 2 2 7 5 4 8 3 6 12 19 11 6 6 14 11 3 4 5 3 6 11 20 22 15 11 9 8
6 6 8 4 3 2 4 3 5 9 6 7 4 4 5 2 3 5 2 1 3 4 6 7 1 3 3 8 17 5 8 3 5 8 8 15 9 5 7 10 13 9 14 10 10
10 9 5 2 1 3 4 5 7 6 4 8 3 5 3 4 5 2 3 2 4 2 3 4 16 8 6 4 5 10 6 6 9 9 17 14 7 15 2 3 5 14 14 11 12
13 8 4 2 2 4 4 7 6 4 6 4 4 5 2 3 4 4 4 3 4 4 2 3 7 12 11 14 3 12 8 2 6 11 19 6 14 12 7 5 2 4 8 7 8
12 2 2 0 4 4 6 5 8 7 3 4 7 5 7 5 2 6 2 3 4 5 8 4 7 1 8 6 12 6 13 14 4 2 5 6 15 6 2 4 4 5 5 11 12
4 3 1 2 5 5 7 5 4 4 2 0 2 2 3 5 4 5 3 3 5 2 7 5 5 6 1 10 12 7 7 7 7 4 5 5 9 13 6 6 4 6 6 7 11
4 4 3 0 3 6 4 7 5 6 3 4 3 3 5 3 4 3 7 5 4 5 7 2 2 4 2 5 8 5 13 6 4 5 5 4 6 3 7 6 10 9 7 10 11
3 3 2 2 5 3 2 6 4 4 1 4 3 4 4 3 3 4 6 5 4 5 6 4 4 4 10 2 8 6 14 15 5 5 4 1 5 4 7 6 8 10 9 9 11
3 2 1 4 2 2 4 4 4 3 4 2 3 6 2 3 3 6 3 3 3 3 5 7 2 3 8 2 2 5 5 5 10 4 4 7 5 6 8 11 8 12 11 10 10
4 1 5 5 1 6 2 4 4 4 4 4 4 1 1 4 6 6 5 4 3 4 6 8 4 7 7 5 1 4 3 1 3 7 5 5 5 2 5 14 12 9 8 8 8
3 4 4 3 3 2 2 3 2 3 3 3 4 6 5 3 4 5 4 5 5 2 6 2 5 4 7 7 5 4 7 8 9 10 15 5 6 12 10 15 13 13 9 10 8
5 4 1 1 1 3 4 5 6 4 4 5 5 3 5 6 8 10 4 1 6 4 5 1 4 5 5 6 5 9 12 11 16 19 17 10 1 5 6 8 8 10 12 10 8
1 2 5 3 2 3 6 6 6 4 6 6 6 3 6 12 9 13 9 5 8 8 7 4 3 4 6 3 6 7 7 9 13 14 16 18 9 11 9 12 11 8 8 10 8
Wind_Direction
17 14 18 25 21 15 14 11 6 4 358 357 350 347 348 342 335 349 29 327 335 337 325 303 314 316 338 305 203 128 91 210 224 158 242 333 335 336 319 114 39 334 157 194 133
9 6 5 7 9 8 7 8 3 1 356 356 345 341 345 341 342 15 3 355 348 341 305 331 276 331 357 259 252 146 164 205 215 181 203 287 342 313 55 123 14 64 23 124 139
11 10 4 354 354 357 358 359 357 355 354 354 346 337 340 340 336 84 358 356 359 348 276 314 297 280 200 123 216 185 194 200 199 203 229 207 315 306 212 193 211 204 154 149 155
3 6 3 356 351 346 347 348 350 349 349 345 343 340 333 327 64 21 359 353 353 357 25 315 275 194 195 184 207 223 228 194 181 195 187 277 314 325 296 205 278 230 175 152 167
360 359 358 358 347 339 338 337 340 341 340 339 339 344 359 5 267 357 350 346 356 360 23 356 311 307 221 176 128 233 234 195 168 193 195 139 227 251 272 302 315 152 159 180 179
357 357 354 350 346 334 329 330 332 332 332 330 331 346 26 331 317 348 349 338 3 358 347 9 13 307 284 291 175 293 225 173 186 178 197 191 229 129 289 2 79 155 179 179 193
353 355 350 345 342 339 330 328 327 325 321 319 319 36 349 245 333 328 334 312 311 333 327 346 348 12 344 337 320 283 299 257 207 191 225 152 254 214 228 128 165 188 178 195 210
345 343 345 344 341 337 331 323 322 316 312 312 324 82 255 262 299 326 340 344 341 306 253 274 279 267 201 316 286 185 186 234 183 163 225 145 241 216 190 188 187 216 199 202 213
346 339 338 339 340 333 327 319 318 310 294 323 61 101 272 303 31 340 29 337 323 337 316 293 304 234 238 253 201 217 214 224 299 202 164 192 229 217 190 165 162 178 216 206 215
331 332 334 336 336 332 328 319 310 14 19 82 116 3 295 318 335 325 284 11 350 336 346 145 212 236 180 181 216 204 223 239 218 208 218 206 231 264 212 186 196 188 203 206 198
327 327 331 337 336 342 347 4 14 349 36 259 274 276 289 304 296 358 357 353 351 81 261 292 230 225 224 225 277 344 314 238 206 223 180 222 217 232 229 216 205 204 199 193 206
319 327 334 341 344 355 44 64 160 213 314 285 251 241 265 242 316 309 16 237 39 209 180 309 255 245 272 214 233 265 266 288 255 241 212 228 233 239 212 215 202 206 203 188 194
304 317 330 342 4 40 80 64 316 183 288 298 252 233 250 140 265 283 138 171 212 236 219 220 247 227 243 249 219 233 237 245 304 321 247 350 246 223 241 240 218 235 203 207 192
264 288 322 5 40 348 26 338 196 83 64 288 334 337 347 328 283 229 215 168 246 235 222 249 245 258 255 269 246 237 203 214 262 326 238 168 263 209 209 228 226 225 228 198 213
238 244 122 83 151 61 325 352 74 54 31 276 306 308 314 202 291 279 171 114 220 221 167 249 223 224 244 240 250 238 202 201 227 209 334 235 256 237 183 224 221 215 212 215 196
178 156 121 63 51 14 353 15 39 43 266 327 313 330 347 281 260 296 312 184 181 238 241 238 309 234 291 306 222 295 262 232 196 214 244 219 211 210 200 205 220 208 210 194 154
147 129 85 106 143 6 31 44 33 116 313 298 296 345 337 283 302 233 270 262 228 205 280 293 251 237 194 270 237 204 223 169 189 189 231 187 193 239 246 203 206 208 204 185 159
129 102 51 85 65 66 59 50 77 238 238 298 306 307 241 360 276 320 283 277 259 151 216 202 312 189 187 203 223 206 235 215 182 193 229 108 223 217 223 133 118 259 247 142 123
116 32 55 357 88 66 72 53 205 203 230 307 326 33 317 338 352 355 240 246 276 209 204 164 263 141 203 182 184 191 208 238 307 326 170 181 241 311 143 94 98 59 106 136 132
99 90 5 144 100 70 76 249 216 220 303 209 225 166 226 274 7 32 290 244 296 271 310 235 262 232 48 202 225 222 139 176 219 178 223 218 222 219 178 169 136 130 109 99 115
58 62 276 346 72 55 151 228 255 240 229 217 245 278 238 265 190 256 258 273 225 292 281 298 208 290 31 236 191 186 240 261 217 198 182 156 240 197 198 201 171 139 122 118 110
97 52 313 337 52 112 171 196 226 275 198 271 252 239 233 221 272 259 231 224 8 339 322 278 235 235 230 293 190 249 234 210 259 177 220 230 273 349 249 180 127 117 105 95 98
105 203 343 85 141 250 313 275 239 225 232 230 258 222 215 245 286 219 258 269 96 351 351 1 273 347 326 3 58 235 199 224 253 274 236 184 244 345 113 98 99 119 113 105 104
83 18 326 53 43 137 175 269 288 223 247 218 245 106 315 258 219 266 283 279 333 212 309 321 244 184 207 219 250 283 266 341 250 233 228 264 159 160 153 130 124 112 100 104 103
59 252 198 252 282 92 184 197 238 279 233 210 283 213 181 282 286 239 244 303 297 278 341 291 265 225 243 248 255 256 270 274 256 260 220 209 228 188 173 153 144 130 119 114 111
138 139 156 179 154 91 235 244 206 261 188 260 209 259 188 218 211 279 288 213 255 323 335 269 279 307 278 244 250 281 281 272 259 250 254 170 167 123 97 90 124 137 138 137 131
170 84 113 203 135 140 226 227 211 163 256 221 213 230 248 256 253 249 245 236 254 279 292 272 336 304 268 326 324 300 241 241 261 226 187 178 176 147 131 148 157 148 148 147 140